NORTHEAST SUFFOLK  -  Wind Advisory Wind Advisory     Wind Advisory Wind Advisory     Rip Current Statement Rip Current Statement     Rip Current Statement Rip Current Statement        NORTHERN NASSAU  -  Wind Advisory Wind Advisory     Wind Advisory Wind Advisory     Coastal Flood Statement Coastal Flood Statement     Rip Current Statement Rip Current Statement     Rip Current Statement Rip Current Statement        NORTHERN QUEENS  -  Wind Advisory Wind Advisory     Coastal Flood Statement Coastal Flood Statement     Rip Current Statement Rip Current Statement     Rip Current Statement Rip Current Statement        NORTHWEST SUFFOLK  -  Wind Advisory Wind Advisory     Wind Advisory Wind Advisory     Rip Current Statement Rip Current Statement     Rip Current Statement Rip Current Statement        SOUTHEAST SUFFOLK  -  Wind Advisory Wind Advisory     Wind Advisory Wind Advisory     Rip Current Statement Rip Current Statement     Rip Current Statement Rip Current Statement        SOUTHERN NASSAU  -  Wind Advisory Wind Advisory     Wind Advisory Wind Advisory     Coastal Flood Statement Coastal Flood Statement     Rip Current Statement Rip Current Statement     Rip Current Statement Rip Current Statement        SOUTHERN QUEENS  -  Wind Advisory Wind Advisory     Coastal Flood Statement Coastal Flood Statement     Rip Current Statement Rip Current Statement     Rip Current Statement Rip Current Statement        SOUTHWEST SUFFOLK  -  Wind Advisory Wind Advisory     Wind Advisory Wind Advisory     Rip Current Statement Rip Current Statement     Rip Current Statement Rip Current Statement      

Active alerts

Northern Queens
  Details for Northern Queens Wind Advisory  +3 additional alerts
Southern Queens
  Details for Southern Queens Wind Advisory  +3 additional alerts
Northern Nassau
  Details for Northern Nassau Wind Advisory  +4 additional alerts
Southern Nassau
  Details for Southern Nassau Wind Advisory  +4 additional alerts
Northwest Suffolk
  Details for Northwest Suffolk Wind Advisory  +3 additional alerts
Southwest Suffolk
  Details for Southwest Suffolk Wind Advisory  +3 additional alerts
Northeast Suffolk
  Details for Northeast Suffolk Wind Advisory  +3 additional alerts
Southeast Suffolk
  Details for Southeast Suffolk Wind Advisory  +3 additional alerts


WXM80 ListenWXM80 Stop

You find our weather info also at:

UK Metoffice

WeatherCloud

Weather Underground

Northeastern Weather Network

AWEKAS

Citizen Weather Observer Program (CWOP)

HAMweather, WeatherForYou, PWS Weather


Weather Underground History page Text

Daily Summary for April 18, 2016 Units:  English    Metric   Both
« Previous Day
Next Day »
Daily Weekly Monthly Yearly Custom
  High: Low: Average:
Temperature: 78.9 °F 40.9 °F 59.8 °F
Dew Point: 43.5 °F 34.1 °F 37.8 °F
Humidity: 85 % 21 % 50 %
Wind Speed: 8.7 mph 0.0 mph 1.9 mph
Wind Gust: 13.8 mph - -
Wind:- - SSE
Pressure: 30.25 in 30.04 in -
Precipitation: 0.00 in    
Historical Graphs
 
 
Tabular Data for April 18, 2016
Time Temperature Dew Point Pressure Wind Wind Speed Wind Gust Humidity Rainfall Rate (Hourly)
00:02 48.0 °F 35.2 °F 30.25 in SW 1.7 mph 2.3 mph 61 % 0.00 in
00:08 47.9 °F 35.1 °F 30.25 in Calm     61 % 0.00 in
00:13 47.8 °F 35.4 °F 30.25 in Calm     62 % 0.00 in
00:18 47.7 °F 35.3 °F 30.25 in Calm     62 % 0.00 in
00:23 47.5 °F 35.1 °F 30.25 in Calm     62 % 0.00 in
00:28 47.3 °F 35.3 °F 30.25 in Calm     63 % 0.00 in
00:33 47.2 °F 35.6 °F 30.25 in Calm     64 % 0.00 in
00:43 46.9 °F 35.7 °F 30.25 in SW 0.1 mph   65 % 0.00 in
00:48 46.7 °F 35.9 °F 30.25 in Calm     66 % 0.00 in
00:53 46.5 °F 35.7 °F 30.25 in Calm     66 % 0.00 in
00:59 46.3 °F 35.6 °F 30.25 in Calm     66 % 0.00 in
01:04 46.1 °F 35.7 °F 30.25 in Calm     67 % 0.00 in
01:09 45.9 °F 35.6 °F 30.25 in Calm     67 % 0.00 in
01:14 45.7 °F 35.4 °F 30.25 in Calm     67 % 0.00 in
01:19 45.5 °F 35.5 °F 30.24 in Calm     68 % 0.00 in
01:24 45.3 °F 35.4 °F 30.24 in Calm     68 % 0.00 in
01:29 45.1 °F 35.2 °F 30.24 in Calm     68 % 0.00 in
01:34 44.9 °F 35.3 °F 30.23 in SW 0.6 mph 1.2 mph 69 % 0.00 in
01:39 44.7 °F 35.1 °F 30.23 in Calm     69 % 0.00 in
01:44 44.6 °F 35.4 °F 30.23 in Calm     70 % 0.00 in
01:55 44.3 °F 35.1 °F 30.22 in Calm     70 % 0.00 in
02:00 44.2 °F 35.0 °F 30.22 in Calm     70 % 0.00 in
02:05 44.1 °F 34.9 °F 30.22 in Calm     70 % 0.00 in
02:10 44.0 °F 34.8 °F 30.22 in Calm     70 % 0.00 in
02:15 43.8 °F 35.0 °F 30.22 in Calm     71 % 0.00 in
02:20 43.7 °F 35.3 °F 30.22 in Calm     72 % 0.00 in
02:25 43.6 °F 35.2 °F 30.21 in Calm     72 % 0.00 in
02:30 43.4 °F 35.3 °F 30.21 in SW 0.9 mph 1.2 mph 73 % 0.00 in
02:35 43.3 °F 35.6 °F 30.21 in Calm     74 % 0.00 in
02:41 43.2 °F 35.1 °F 30.21 in Calm     73 % 0.00 in
02:46 43.2 °F 35.5 °F 30.21 in Calm     74 % 0.00 in
02:51 43.1 °F 35.7 °F 30.21 in Calm     75 % 0.00 in
02:56 42.9 °F 35.5 °F 30.22 in Calm     75 % 0.00 in
03:01 42.9 °F 35.5 °F 30.21 in Calm     75 % 0.00 in
03:06 42.8 °F 35.4 °F 30.21 in SW 0.3 mph 1.2 mph 75 % 0.00 in
03:11 42.7 °F 35.7 °F 30.21 in Calm     76 % 0.00 in
03:16 42.6 °F 35.6 °F 30.21 in Calm     76 % 0.00 in
03:21 42.5 °F 35.8 °F 30.21 in Calm   1.2 mph 77 % 0.00 in
03:26 42.4 °F 35.7 °F 30.21 in Calm     77 % 0.00 in
03:32 42.3 °F 35.6 °F 30.21 in SW 0.5 mph 1.2 mph 77 % 0.00 in
03:37 42.2 °F 35.5 °F 30.21 in Calm     77 % 0.00 in
03:42 42.1 °F 35.4 °F 30.22 in Calm     77 % 0.00 in
03:52 41.9 °F 35.2 °F 30.21 in Calm     77 % 0.00 in
03:57 41.8 °F 35.4 °F 30.21 in SW 1.9 mph 3.5 mph 78 % 0.00 in
04:02 41.6 °F 35.2 °F 30.20 in SW 1.2 mph 2.3 mph 78 % 0.00 in
04:07 41.5 °F 35.5 °F 30.20 in SW 2.1 mph 3.5 mph 79 % 0.00 in
04:12 41.5 °F 35.2 °F 30.20 in SW 0.4 mph 1.2 mph 78 % 0.00 in
04:23 41.5 °F 35.5 °F 30.20 in Calm   1.2 mph 79 % 0.00 in
04:28 41.5 °F 35.8 °F 30.20 in Calm     80 % 0.00 in
04:33 41.4 °F 35.4 °F 30.20 in Calm     79 % 0.00 in
04:48 41.3 °F 35.6 °F 30.20 in Calm     80 % 0.00 in
04:53 41.3 °F 35.9 °F 30.20 in Calm     81 % 0.00 in
04:58 41.2 °F 35.8 °F 30.20 in Calm     81 % 0.00 in
05:03 41.1 °F 35.7 °F 30.20 in Calm     81 % 0.00 in
05:08 41.0 °F 35.9 °F 30.20 in Calm     82 % 0.00 in
05:14 41.0 °F 35.6 °F 30.19 in SW 0.1 mph 1.2 mph 81 % 0.00 in
05:19 40.9 °F 35.5 °F 30.19 in Calm   1.2 mph 81 % 0.00 in
05:24 40.9 °F 35.5 °F 30.19 in SW 0.5 mph 1.2 mph 81 % 0.00 in
05:29 40.9 °F 35.5 °F 30.20 in Calm     81 % 0.00 in
05:34 40.9 °F 35.8 °F 30.20 in SW 0.2 mph 1.2 mph 82 % 0.00 in
05:39 40.9 °F 35.8 °F 30.21 in Calm     82 % 0.00 in
05:44 40.9 °F 35.5 °F 30.21 in SW 0.2 mph 1.2 mph 81 % 0.00 in
05:49 40.9 °F 35.5 °F 30.21 in Calm     81 % 0.00 in
05:54 40.9 °F 35.5 °F 30.21 in SW 0.1 mph 1.2 mph 81 % 0.00 in
06:00 40.9 °F 35.5 °F 30.21 in Calm     81 % 0.00 in
06:05 40.9 °F 35.5 °F 30.21 in SW 0.2 mph 1.2 mph 81 % 0.00 in
06:10 40.9 °F 35.8 °F 30.21 in Calm   1.2 mph 82 % 0.00 in
06:15 41.0 °F 35.9 °F 30.21 in SW 0.4 mph 1.2 mph 82 % 0.00 in
06:20 41.0 °F 36.2 °F 30.20 in Calm     83 % 0.00 in
06:25 41.1 °F 36.3 °F 30.21 in SW 0.8 mph 1.2 mph 83 % 0.00 in
06:30 41.1 °F 36.3 °F 30.21 in Calm     83 % 0.00 in
06:35 41.2 °F 36.4 °F 30.21 in SW 1.3 mph 2.3 mph 83 % 0.00 in
06:40 41.3 °F 36.5 °F 30.21 in SW 0.4 mph 1.2 mph 83 % 0.00 in
06:45 41.3 °F 36.2 °F 30.21 in SW 0.7 mph 1.2 mph 82 % 0.00 in
06:51 41.5 °F 36.7 °F 30.20 in SW 0.2 mph 1.2 mph 83 % 0.00 in
06:56 41.7 °F 36.9 °F 30.21 in Calm     83 % 0.00 in
07:01 42.1 °F 37.9 °F 30.20 in SW 0.3 mph 1.2 mph 85 % 0.00 in
07:06 42.5 °F 38.3 °F 30.21 in SW 1.2 mph 3.5 mph 85 % 0.00 in
07:11 43.0 °F 38.8 °F 30.21 in SW 1.6 mph 3.5 mph 85 % 0.00 in
07:16 43.6 °F 39.4 °F 30.21 in SW 0.4 mph 2.3 mph 85 % 0.00 in
07:21 44.3 °F 40.1 °F 30.21 in SW 1.1 mph 3.0 mph 85 % 0.00 in
07:26 45.0 °F 40.8 °F 30.21 in SW 0.6 mph 2.0 mph 85 % 0.00 in
07:31 46.0 °F 41.1 °F 30.22 in WSW 3.0 mph 4.0 mph 83 % 0.00 in
07:36 46.9 °F 41.7 °F 30.21 in WSW 1.2 mph 2.3 mph 82 % 0.00 in
07:42 47.5 °F 42.0 °F 30.21 in WSW 1.0 mph 1.2 mph 81 % 0.00 in
07:47 48.1 °F 42.2 °F 30.21 in WSW 1.9 mph 3.5 mph 80 % 0.00 in
07:52 48.8 °F 42.6 °F 30.21 in West 1.5 mph 3.5 mph 79 % 0.00 in
07:57 49.5 °F 42.9 °F 30.21 in West 2.5 mph 4.0 mph 78 % 0.00 in
08:02 50.3 °F 42.7 °F 30.20 in West 2.0 mph 3.5 mph 75 % 0.00 in
08:07 51.0 °F 42.6 °F 30.20 in West 0.9 mph 1.2 mph 73 % 0.00 in
08:12 51.6 °F 42.5 °F 30.21 in West 0.3 mph 1.2 mph 71 % 0.00 in
08:17 52.2 °F 41.6 °F 30.21 in West 0.5 mph 3.5 mph 67 % 0.00 in
08:22 52.9 °F 41.8 °F 30.22 in West 1.2 mph 3.5 mph 66 % 0.00 in
08:27 53.6 °F 41.3 °F 30.22 in West 2.4 mph 3.5 mph 63 % 0.00 in
08:33 54.4 °F 41.2 °F 30.22 in West 1.5 mph 3.5 mph 61 % 0.00 in
08:43 56.1 °F 42.0 °F 30.22 in Calm   2.3 mph 59 % 0.00 in
08:48 57.0 °F 40.5 °F 30.21 in North 2.3 mph 3.5 mph 54 % 0.00 in
08:53 58.0 °F 41.0 °F 30.22 in NNW 2.3 mph 5.0 mph 53 % 0.00 in
08:58 58.9 °F 41.3 °F 30.21 in North 2.8 mph 5.0 mph 52 % 0.00 in
09:03 59.6 °F 41.9 °F 30.21 in North 2.2 mph 3.5 mph 52 % 0.00 in
09:08 60.4 °F 43.2 °F 30.21 in NNE 0.7 mph 3.5 mph 53 % 0.00 in
09:13 61.3 °F 42.5 °F 30.21 in North 1.3 mph 4.0 mph 50 % 0.00 in
09:18 62.0 °F 41.5 °F 30.21 in North 1.2 mph 4.6 mph 47 % 0.00 in
09:24 62.6 °F 40.9 °F 30.21 in NNW 2.2 mph 3.5 mph 45 % 0.00 in
09:29 63.0 °F 40.1 °F 30.20 in North 4.2 mph 5.8 mph 43 % 0.00 in
09:34 63.7 °F 41.4 °F 30.20 in North 3.1 mph 4.0 mph 44 % 0.00 in
09:39 64.2 °F 42.4 °F 30.20 in NW 1.1 mph 2.3 mph 45 % 0.00 in
09:44 64.8 °F 42.4 °F 30.20 in NW 1.4 mph 3.5 mph 44 % 0.00 in
09:49 66.1 °F 43.5 °F 30.20 in North 3.8 mph 5.8 mph 44 % 0.00 in
09:54 67.3 °F 43.4 °F 30.20 in North 2.5 mph 4.0 mph 42 % 0.00 in
09:59 68.2 °F 42.3 °F 30.20 in NNE 2.9 mph 4.0 mph 39 % 0.00 in
10:04 68.9 °F 42.9 °F 30.20 in NE 3.8 mph 5.0 mph 39 % 0.00 in
10:09 69.7 °F 42.9 °F 30.19 in NW 2.5 mph 3.5 mph 38 % 0.00 in
10:15 70.3 °F 42.1 °F 30.19 in North 2.1 mph 4.0 mph 36 % 0.00 in
10:20 71.2 °F 42.9 °F 30.20 in NNE 3.1 mph 4.0 mph 36 % 0.00 in
10:25 71.6 °F 43.2 °F 30.20 in North 3.5 mph 5.0 mph 36 % 0.00 in
10:30 71.9 °F 42.0 °F 30.19 in NNE 1.8 mph 5.0 mph 34 % 0.00 in
10:35 72.2 °F 40.7 °F 30.19 in NE 1.1 mph 4.0 mph 32 % 0.00 in
10:40 72.4 °F 40.0 °F 30.19 in NE 1.7 mph 4.0 mph 31 % 0.00 in
10:45 73.0 °F 41.4 °F 30.19 in NNE 3.3 mph 6.0 mph 32 % 0.00 in
10:50 73.3 °F 40.0 °F 30.19 in NNE 3.0 mph 5.8 mph 30 % 0.00 in
10:55 73.3 °F 40.8 °F 30.18 in East 3.7 mph 6.0 mph 31 % 0.00 in
11:00 72.8 °F 41.2 °F 30.18 in ENE 1.4 mph 3.5 mph 32 % 0.00 in
11:06 72.8 °F 39.5 °F 30.18 in ENE 4.2 mph 6.9 mph 30 % 0.00 in
11:11 72.0 °F 38.0 °F 30.18 in ENE 2.9 mph 4.6 mph 29 % 0.00 in
11:16 72.3 °F 40.8 °F 30.18 in ENE 2.4 mph 3.5 mph 32 % 0.00 in
11:21 73.0 °F 39.7 °F 30.18 in ENE 2.9 mph 5.0 mph 30 % 0.00 in
11:26 73.4 °F 41.7 °F 30.18 in NNW 1.7 mph 4.0 mph 32 % 0.00 in
11:31 74.1 °F 40.7 °F 30.18 in ENE 2.2 mph 3.5 mph 30 % 0.00 in
11:36 74.3 °F 41.7 °F 30.18 in ENE 1.9 mph 3.5 mph 31 % 0.00 in
11:41 74.5 °F 40.1 °F 30.18 in ENE 2.4 mph 3.5 mph 29 % 0.00 in
11:46 74.9 °F 39.6 °F 30.17 in NE 2.8 mph 4.0 mph 28 % 0.00 in
11:51 75.2 °F 38.9 °F 30.17 in ENE 2.1 mph 3.5 mph 27 % 0.00 in
11:57 75.3 °F 39.0 °F 30.17 in East 2.6 mph 3.5 mph 27 % 0.00 in
12:02 75.3 °F 39.0 °F 30.17 in North 2.6 mph 4.6 mph 27 % 0.00 in
12:07 75.6 °F 37.3 °F 30.17 in ENE 2.4 mph 3.5 mph 25 % 0.00 in
12:12 75.6 °F 39.2 °F 30.17 in NNE 2.2 mph 3.5 mph 27 % 0.00 in
12:17 76.1 °F 37.7 °F 30.17 in ENE 2.0 mph 4.0 mph 25 % 0.00 in
12:22 75.7 °F 36.3 °F 30.17 in East 2.5 mph 4.6 mph 24 % 0.00 in
12:27 75.8 °F 37.5 °F 30.17 in NE 2.4 mph 3.5 mph 25 % 0.00 in
12:32 75.6 °F 34.1 °F 30.16 in ENE 5.5 mph 6.9 mph 22 % 0.00 in
12:37 75.1 °F 35.8 °F 30.16 in NE 4.1 mph 4.1 mph 24 % 0.00 in
12:42 75.1 °F 34.8 °F 30.16 in ENE 2.8 mph 6.9 mph 23 % 0.00 in
12:48 74.5 °F 34.2 °F 30.16 in ENE 2.6 mph 4.6 mph 23 % 0.00 in
12:53 74.7 °F 34.4 °F 30.16 in East 3.1 mph 5.8 mph 23 % 0.00 in
12:58 74.7 °F 34.4 °F 30.16 in NE 2.1 mph 5.8 mph 23 % 0.00 in
13:03 75.0 °F 34.7 °F 30.15 in NE 3.7 mph 8.1 mph 23 % 0.00 in
13:08 75.1 °F 36.9 °F 30.15 in ENE 3.6 mph 4.6 mph 25 % 0.00 in
13:13 75.3 °F 37.0 °F 30.15 in ENE 3.2 mph 4.6 mph 25 % 0.00 in
13:18 75.8 °F 37.5 °F 30.15 in ENE 4.0 mph 5.0 mph 25 % 0.00 in
13:23 75.7 °F 37.4 °F 30.15 in ENE 2.9 mph 5.8 mph 25 % 0.00 in
13:28 75.8 °F 36.4 °F 30.14 in ENE 3.1 mph 4.6 mph 24 % 0.00 in
13:39 75.7 °F 39.3 °F 30.14 in ENE 2.8 mph 4.6 mph 27 % 0.00 in
13:44 75.9 °F 38.5 °F 30.14 in NE 3.4 mph 4.6 mph 26 % 0.00 in
13:54 75.7 °F 37.4 °F 30.14 in East 3.3 mph 5.0 mph 25 % 0.00 in
13:59 75.9 °F 38.5 °F 30.14 in ENE 3.6 mph 4.0 mph 26 % 0.00 in
14:04 76.3 °F 37.9 °F 30.13 in ENE 2.4 mph 3.5 mph 25 % 0.00 in
14:09 76.1 °F 35.6 °F 30.13 in ENE 5.5 mph 8.0 mph 23 % 0.00 in
14:14 75.9 °F 39.5 °F 30.13 in ENE 4.5 mph 8.1 mph 27 % 0.00 in
14:19 75.9 °F 36.5 °F 30.12 in NE 3.3 mph 8.0 mph 24 % 0.00 in
14:24 76.2 °F 37.8 °F 30.12 in ENE 4.1 mph 5.8 mph 25 % 0.00 in
14:30 76.3 °F 35.8 °F 30.12 in ENE 5.5 mph 8.1 mph 23 % 0.00 in
14:35 76.1 °F 35.6 °F 30.12 in ENE 4.7 mph 6.9 mph 23 % 0.00 in
14:40 76.0 °F 35.5 °F 30.13 in ENE 3.5 mph 6.9 mph 23 % 0.00 in
14:45 76.2 °F 37.8 °F 30.12 in ENE 5.1 mph 6.9 mph 25 % 0.00 in
14:50 76.4 °F 35.8 °F 30.12 in ENE 6.0 mph 8.1 mph 23 % 0.00 in
14:55 76.6 °F 36.0 °F 30.11 in ENE 3.6 mph 4.6 mph 23 % 0.00 in
15:00 76.9 °F 37.3 °F 30.11 in ENE 4.3 mph 7.0 mph 24 % 0.00 in
15:05 77.1 °F 37.5 °F 30.11 in ENE 2.5 mph 4.6 mph 24 % 0.00 in
15:10 77.5 °F 36.8 °F 30.11 in ENE 4.1 mph 7.0 mph 23 % 0.00 in
15:15 77.5 °F 35.6 °F 30.11 in ENE 4.2 mph 5.8 mph 22 % 0.00 in
15:21 77.3 °F 36.6 °F 30.11 in ENE 2.6 mph 6.9 mph 23 % 0.00 in
15:26 77.4 °F 38.8 °F 30.12 in ENE 3.9 mph 6.9 mph 25 % 0.00 in
15:31 77.6 °F 37.9 °F 30.12 in NNE 2.9 mph 5.0 mph 24 % 0.00 in
15:36 77.8 °F 35.9 °F 30.11 in ENE 2.2 mph 3.5 mph 22 % 0.00 in
15:41 77.9 °F 37.1 °F 30.11 in ENE 2.1 mph 3.5 mph 23 % 0.00 in
15:46 78.1 °F 37.3 °F 30.11 in NE 4.1 mph 4.6 mph 23 % 0.00 in
15:51 78.4 °F 38.6 °F 30.10 in NE 3.1 mph 4.0 mph 24 % 0.00 in
15:56 78.9 °F 36.8 °F 30.10 in ENE 3.0 mph 4.0 mph 22 % 0.00 in
16:01 78.9 °F 36.8 °F 30.10 in ENE 2.1 mph 3.5 mph 22 % 0.00 in
16:06 78.9 °F 37.9 °F 30.10 in ENE 3.0 mph 3.5 mph 23 % 0.00 in
16:12 78.6 °F 35.4 °F 30.10 in ENE 3.9 mph 5.0 mph 21 % 0.00 in
16:17 77.9 °F 36.0 °F 30.09 in ENE 3.2 mph 5.8 mph 22 % 0.00 in
16:22 77.6 °F 35.7 °F 30.09 in ENE 4.2 mph 6.9 mph 22 % 0.00 in
16:27 77.5 °F 35.6 °F 30.09 in ENE 1.4 mph 3.5 mph 22 % 0.00 in
16:32 77.6 °F 36.8 °F 30.09 in ENE 2.4 mph 5.0 mph 23 % 0.00 in
16:37 77.7 °F 36.9 °F 30.08 in ENE 2.2 mph 3.5 mph 23 % 0.00 in
16:42 77.8 °F 38.1 °F 30.08 in NNE 2.4 mph 3.5 mph 24 % 0.00 in
16:47 77.9 °F 36.0 °F 30.08 in ENE 1.5 mph 3.5 mph 22 % 0.00 in
16:52 77.8 °F 35.9 °F 30.08 in East 1.9 mph 2.3 mph 22 % 0.00 in
16:57 77.9 °F 38.2 °F 30.08 in SSE 1.0 mph 3.0 mph 24 % 0.00 in
17:03 77.8 °F 38.1 °F 30.08 in SSE 5.5 mph 11.5 mph 24 % 0.00 in
17:13 76.7 °F 38.2 °F 30.08 in South 5.1 mph 10.4 mph 25 % 0.00 in
17:18 76.2 °F 38.8 °F 30.08 in SSE 3.0 mph 6.0 mph 26 % 0.00 in
17:23 75.4 °F 38.1 °F 30.08 in SSE 6.1 mph 12.7 mph 26 % 0.00 in
17:28 74.4 °F 38.2 °F 30.07 in SSE 5.0 mph 10.0 mph 27 % 0.00 in
17:33 73.5 °F 39.3 °F 30.08 in SSE 8.7 mph 12.7 mph 29 % 0.00 in
17:38 72.8 °F 40.4 °F 30.08 in SE 4.0 mph 10.4 mph 31 % 0.00 in
17:43 72.2 °F 40.7 °F 30.08 in SSE 6.5 mph 13.8 mph 32 % 0.00 in
17:48 71.8 °F 41.1 °F 30.08 in South 4.8 mph 12.0 mph 33 % 0.00 in
17:54 71.4 °F 41.6 °F 30.08 in SE 5.6 mph 11.5 mph 34 % 0.00 in
17:59 70.8 °F 41.0 °F 30.08 in SSE 5.0 mph 11.5 mph 34 % 0.00 in
18:04 70.1 °F 41.2 °F 30.07 in SSE 2.8 mph 5.8 mph 35 % 0.00 in
18:09 69.7 °F 39.3 °F 30.07 in SSE 3.6 mph 8.1 mph 33 % 0.00 in
18:14 69.4 °F 38.2 °F 30.07 in SSE 5.8 mph 11.5 mph 32 % 0.00 in
18:19 68.9 °F 37.8 °F 30.07 in South 4.8 mph 10.4 mph 32 % 0.00 in
18:24 68.6 °F 37.5 °F 30.07 in SSE 6.6 mph 11.0 mph 32 % 0.00 in
18:34 67.9 °F 36.9 °F 30.07 in SW 5.0 mph 12.7 mph 32 % 0.00 in
18:40 67.5 °F 37.4 °F 30.07 in South 5.3 mph 8.1 mph 33 % 0.00 in
18:45 67.3 °F 37.2 °F 30.07 in South 5.2 mph 6.9 mph 33 % 0.00 in
18:50 66.9 °F 36.1 °F 30.07 in South 5.9 mph 9.2 mph 32 % 0.00 in
18:55 66.5 °F 36.5 °F 30.06 in SSW 5.7 mph 10.4 mph 33 % 0.00 in
19:00 66.1 °F 36.1 °F 30.07 in SSW 5.9 mph 10.4 mph 33 % 0.00 in
19:05 65.8 °F 36.6 °F 30.07 in SSE 6.4 mph 11.5 mph 34 % 0.00 in
19:10 65.4 °F 36.3 °F 30.07 in South 4.9 mph 10.4 mph 34 % 0.00 in
19:15 65.2 °F 36.1 °F 30.07 in South 1.6 mph 4.0 mph 34 % 0.00 in
19:20 64.9 °F 35.8 °F 30.07 in South 2.7 mph 3.5 mph 34 % 0.00 in
19:25 64.6 °F 35.6 °F 30.06 in SSW 4.5 mph 7.0 mph 34 % 0.00 in
19:31 64.3 °F 35.3 °F 30.06 in South 4.2 mph 10.4 mph 34 % 0.00 in
19:36 64.1 °F 35.9 °F 30.06 in SE 2.8 mph 6.9 mph 35 % 0.00 in
19:41 63.8 °F 35.6 °F 30.06 in South 2.8 mph 8.1 mph 35 % 0.00 in
19:46 63.6 °F 35.4 °F 30.06 in South 4.3 mph 10.4 mph 35 % 0.00 in
19:51 63.4 °F 36.0 °F 30.06 in SSE 5.5 mph 8.0 mph 36 % 0.00 in
19:56 63.1 °F 35.7 °F 30.06 in SSE 4.9 mph 8.1 mph 36 % 0.00 in
20:01 62.9 °F 36.2 °F 30.06 in South 1.2 mph 6.9 mph 37 % 0.00 in
20:06 62.7 °F 36.0 °F 30.06 in SSE 0.7 mph 3.5 mph 37 % 0.00 in
20:11 62.5 °F 36.5 °F 30.06 in SSE 1.6 mph 4.6 mph 38 % 0.00 in
20:16 62.2 °F 36.9 °F 30.06 in SSW 2.3 mph 3.5 mph 39 % 0.00 in
20:27 61.7 °F 37.1 °F 30.06 in SSW 2.4 mph 4.6 mph 40 % 0.00 in
20:32 61.3 °F 37.4 °F 30.06 in South 1.1 mph 4.0 mph 41 % 0.00 in
20:37 60.9 °F 37.6 °F 30.07 in South 3.2 mph 4.6 mph 42 % 0.00 in
20:42 60.7 °F 37.5 °F 30.07 in Calm     42 % 0.00 in
20:47 60.6 °F 38.0 °F 30.07 in NNW 0.1 mph 2.3 mph 43 % 0.00 in
20:57 60.2 °F 37.6 °F 30.07 in WSW 3.4 mph 7.0 mph 43 % 0.00 in
21:02 60.0 °F 37.4 °F 30.08 in SW 0.4 mph 2.3 mph 43 % 0.00 in
21:07 59.8 °F 37.8 °F 30.08 in WSW 2.1 mph 4.0 mph 44 % 0.00 in
21:13 59.6 °F 38.2 °F 30.08 in WSW 3.3 mph 3.5 mph 45 % 0.00 in
21:18 59.5 °F 38.1 °F 30.08 in WNW 1.7 mph 3.5 mph 45 % 0.00 in
21:23 59.3 °F 38.5 °F 30.08 in WSW 1.5 mph 2.3 mph 46 % 0.00 in
21:28 59.1 °F 38.3 °F 30.08 in WSW 0.1 mph 1.2 mph 46 % 0.00 in
21:33 59.0 °F 38.2 °F 30.08 in Calm     46 % 0.00 in
21:38 58.8 °F 38.6 °F 30.07 in Calm     47 % 0.00 in
21:43 58.6 °F 38.4 °F 30.07 in WSW 0.1 mph 1.2 mph 47 % 0.00 in
21:48 58.4 °F 38.8 °F 30.08 in WSW 0.7 mph 2.3 mph 48 % 0.00 in
21:58 57.9 °F 39.4 °F 30.07 in Calm   1.2 mph 50 % 0.00 in
22:04 57.6 °F 39.6 °F 30.07 in WSW 0.7 mph 2.0 mph 51 % 0.00 in
22:09 57.3 °F 39.3 °F 30.07 in Calm     51 % 0.00 in
22:14 57.1 °F 38.6 °F 30.07 in Calm     50 % 0.00 in
22:19 56.9 °F 38.9 °F 30.07 in Calm     51 % 0.00 in
22:24 56.7 °F 39.3 °F 30.07 in Calm     52 % 0.00 in
22:29 56.4 °F 39.0 °F 30.07 in Calm     52 % 0.00 in
22:34 56.2 °F 39.3 °F 30.07 in Calm     53 % 0.00 in
22:39 55.9 °F 40.0 °F 30.07 in Calm     55 % 0.00 in
22:44 55.5 °F 39.6 °F 30.07 in Calm     55 % 0.00 in
22:49 55.3 °F 39.9 °F 30.07 in Calm     56 % 0.00 in
22:55 55.0 °F 39.6 °F 30.06 in Calm     56 % 0.00 in
23:00 54.7 °F 39.8 °F 30.06 in Calm     57 % 0.00 in
23:05 54.4 °F 39.5 °F 30.06 in Calm     57 % 0.00 in
23:10 54.1 °F 39.2 °F 30.06 in Calm     57 % 0.00 in
23:15 53.9 °F 39.9 °F 30.05 in Calm     59 % 0.00 in
23:20 53.5 °F 39.9 °F 30.05 in Calm     60 % 0.00 in
23:25 53.2 °F 39.7 °F 30.05 in Calm     60 % 0.00 in
23:30 53.0 °F 39.9 °F 30.05 in Calm     61 % 0.00 in
23:35 52.7 °F 39.6 °F 30.05 in Calm     61 % 0.00 in
23:40 52.5 °F 39.8 °F 30.05 in Calm     62 % 0.00 in
23:46 52.2 °F 39.6 °F 30.04 in Calm     62 % 0.00 in
23:51 52.0 °F 39.8 °F 30.04 in Calm     63 % 0.00 in
23:56 51.8 °F 40.0 °F 30.04 in Calm     64 % 0.00 in
Crab Meadow Weather
Compliments of Weather Underground - 3 mb

Script developed by  Jim McMurry - jmcmurry@mwt.net Adapted for the template by  Wim van der Kuil - Leuven-Template.eu

Weather Terms: Winter Weather Advisory - Hazardous winter weather conditions are occurring, imminent or likely. Conditions will cause a significant inconvenience and if caution is not exercised, will result in a potential threat to life and/or property. The generic term, winter weather advisory, is used for a combination of two or more of the following events; snow, freezing rain or drizzle, sleet, blowing snow.